Weather in Verhoyansk

Russia / Sakha (Yakutia) Republic     67°33′00″N   133°23′26″E
temp.,
°C
wind,
m/s
gust,
m/s
humid.,
%
clouds,
%
prec.,
mm/h
press.,
hPa
HPBL,
m
1 march, mon
mon101:00−37sw119939 0.0 102519
04:00−38wsw0010032 0.0 102419
07:00−39e1110019 0.0 102419
10:00−36ene119520 0.0 102419
13:00−33ene118745 0.0 1024185
16:00−32ene118970 0.0 1023193
19:00−36ene119887 0.0 102319
22:00−37ene119990 0.0 102419
2 march, tue
tue201:00−36ene119899 0.0 102419
04:00−36ne119999 0.1 102419
07:00−38ene1110096 0.0 102519
10:00−36ne119795 0.0 102619
13:00−34ene118783 0.0 1026198
16:00−32nne118782 0.0 1025199
19:00−38ne0010041 0.0 102719
22:00−39nw119923 0.0 102719
3 march, wed
wed301:00−39wnw119938 0.0 102719
04:00−38wnw119769 0.0 102619
07:00−37wnw1197100 0.0 102519
10:00−35nw1195100 0.0 102458
13:00−33nne1288100 0.0 1022350
16:00−32nne1386100 0.1 1020523
19:00−34ne1197100 0.0 102119
22:00−35n2297100 0.1 102030
4 march, thu
thu401:00−36n2298100 0.1 102044
04:00−36n1298100 0.2 102033
07:00−37n1199100 0.1 102119
10:00−36n1194100 0.2 1021217
13:00−35nnw2384100 0.1 1022554
16:00−33n2383100 0.1 1022620
19:00−34wsw0198100 0.1 102419
22:00−33wsw1198100 0.2 102519
5 march, fri
fri501:00−33wsw1198100 0.1 102619
04:00−32sw2298100 0.1 102722
07:00−31wsw1298100 0.1 102720
10:00−29w1296100 0.1 102794
13:00−26wnw2388100 0.0 1027475
16:00−25nw3588100 0.1 1027603
19:00−26nnw2295100 0.1 102820
22:00−27n2298100 0.1 102820